Location: Wyoming Infrared Observatory
(41.0971°N, 105.9765°W)
Time: 21:33:18
(UTC-06:00)

Amateur Radio Satellites - All Passes

Search period start: 28 April 2017 21:03
Search period end: 29 April 2017 21:03
Location: Wyoming Infrared Observatory, 41.0971°N, 105.9765°W

Satellite Date Start Highest point End Downlink Frequencies (MHz)
Time Altitude Azimuth
O/OREOS (USA 219) 28 Apr 21:11:10 21:14:53 25° 258° (WSW) 21:18:32 437.305
UWE-3 28 Apr 21:16:48 21:20:36 31° 263° (W) 21:24:22 435.000/436.395/437.385
AAUSAT CUBESAT 2 28 Apr 21:21:49 21:25:13 24° 265° (W) 21:28:39 437.432
BEESAT 3 28 Apr 21:32:57 21:36:13 23° 47° (NE) 21:39:26 437.485
CUBEBUG 2 28 Apr 21:37:19 21:39:10 12° 269° (W) 21:41:01 437.445
BEESAT 2 28 Apr 21:38:14 21:40:03 13° 40° (NE) 21:41:50 435.950
M-CUBED/EXP-1 PRIME 28 Apr 21:42:05 21:45:32 26° 298° (WNW) 21:48:47 437.505
DELFI C3 28 Apr 21:43:31 21:47:26 60° 75° (ENE) 21:51:23 145.870
OBJECT BX 28 Apr 21:49:29 21:53:00 50° 74° (ENE) 21:56:32 145.990 - 145.960
FO-29 28 Apr 21:58:53 22:00:34 11° 90° (E) 22:02:16 435.910
STRAND 1 28 Apr 21:59:12 22:02:36 18° 297° (WNW) 22:06:00 437.568
ZACube-1 28 Apr 22:08:18 22:10:49 15° 268° (W) 22:13:18 437.345
AO-73 28 Apr 22:13:51 22:16:13 15° 268° (W) 22:18:36 145.935
Oscar 11 28 Apr 22:26:37 22:28:49 14° 269° (W) 22:31:02 .
TIGRISAT 28 Apr 22:28:16 22:31:47 24° 95° (E) 22:35:20 435.000
AO-85 28 Apr 22:28:35 22:31:31 19° 247° (WSW) 22:34:33 145.980
ESTCUBE 1 28 Apr 22:35:15 22:38:09 17° 64° (ENE) 22:41:04 437.505/2401.250
LO-87 28 Apr 22:45:32 22:48:46 31° 72° (ENE) 22:52:01 145.935 - 145.965
UNISAT 6 28 Apr 22:49:46 22:53:55 45° 99° (E) 22:58:07 437.425
PRISM 28 Apr 23:08:06 23:12:14 67° 286° (WNW) 23:16:19 437.425
BEESAT 3 28 Apr 23:10:12 23:13:52 34° 245° (WSW) 23:17:29 437.485
BEESAT 2 28 Apr 23:14:19 23:18:23 86° 239° (WSW) 23:22:25 435.950
DELFI C3 28 Apr 23:22:22 23:22:34 10° 270° (W) 23:22:47 145.870
SPROUT 28 Apr 23:22:38 23:24:40 13° 63° (ENE) 23:26:42 437.525
FO-29 28 Apr 23:40:57 23:46:13 81° 285° (WNW) 23:51:51 435.910
TIGRISAT 29 Apr 00:04:46 00:08:27 29° 291° (WNW) 00:12:11 435.000
POLYITAN 1 29 Apr 00:08:41 00:12:04 23° 95° (E) 00:15:26 437.675
ESTCUBE 1 29 Apr 00:10:12 00:14:33 48° 261° (W) 00:18:57 437.505/2401.250
VELOX 1 29 Apr 00:12:20 00:16:38 49° 72° (ENE) 00:20:57 145.980
QB50P2 29 Apr 00:15:11 00:18:54 30° 97° (E) 00:22:37 145.880/145.840
UKube-1 29 Apr 00:19:37 00:22:19 16° 64° (ENE) 00:25:01 .
LO-87 29 Apr 00:20:01 00:22:16 16° 267° (W) 00:24:33 145.935 - 145.965
AIST 2D 29 Apr 00:22:41 00:26:13 73° 101° (E) 00:29:44 435.315
UNISAT 6 29 Apr 00:27:37 00:30:17 16° 295° (WNW) 00:32:59 437.425
NANOSAT C BR1 29 Apr 00:34:22 00:38:20 41° 98° (E) 00:42:17 145.865
50 SAT 29 Apr 00:36:04 00:39:26 47° 74° (ENE) 00:42:49 437.505
SPROUT 29 Apr 00:55:52 01:00:05 58° 260° (W) 01:04:18 437.525
DX 1 29 Apr 00:55:52 01:00:10 56° 73° (ENE) 01:04:28 434.975-435.025
DUCHIFAT 1 29 Apr 01:02:37 01:06:48 80° 101° (E) 01:10:58 145.980
EO-79 29 Apr 01:03:41 01:07:53 81° 284° (WNW) 01:12:05 145.935-145.965
NO-84 29 Apr 01:10:16 01:12:29 18° 28° (NNE) 01:14:36 435.350 FM
PCSat 29 Apr 01:25:33 01:30:08 29° 109° (ESE) 01:34:45 145.827
FO-29 29 Apr 01:30:01 01:30:33 10° 302° (WNW) 01:31:05 435.910
POLYITAN 1 29 Apr 01:44:13 01:47:50 28° 291° (WNW) 01:51:26 437.675
VELOX 1 29 Apr 01:50:44 01:53:20 15° 268° (W) 01:55:58 145.980
QB50P2 29 Apr 01:51:14 01:54:32 23° 292° (WNW) 01:57:50 145.880/145.840
UKube-1 29 Apr 01:53:47 01:57:57 47° 260° (W) 02:02:09 .
BUGSAT 1 29 Apr 01:54:08 01:58:09 85° 287° (WNW) 02:02:10 437.445
BEESAT 29 Apr 02:10:12 02:13:47 22° 65° (ENE) 02:17:25 436.000
NANOSAT C BR1 29 Apr 02:11:00 02:13:43 17° 295° (WNW) 02:16:26 145.865
Oscar 19 29 Apr 02:32:29 02:37:42 71° 102° (ESE) 02:42:52 437.125/150
DX 1 29 Apr 02:34:38 02:36:41 13° 269° (W) 02:38:44 434.975-435.025
NO-84 29 Apr 02:47:22 02:50:07 39° 227° (SW) 02:52:47 435.350 FM
ITUPSAT 1 29 Apr 02:51:22 02:55:59 54° 72° (ENE) 03:00:37 437.325
Gurwin Techsat 1B 29 Apr 02:54:56 03:00:14 67° 102° (ESE) 03:05:30 435.225
PCSat 29 Apr 03:08:15 03:13:21 41° 306° (NW) 03:18:29 145.827
MOZHAYETS 4 29 Apr 03:16:43 03:21:03 45° 72° (ENE) 03:25:25
BEESAT 29 Apr 03:46:50 03:51:18 40° 262° (W) 03:55:47 436.000
AO-7 29 Apr 03:50:45 03:58:07 34° 97° (E) 04:05:28 .
ITAMSAT 1 29 Apr 04:04:12 04:09:08 44° 99° (E) 04:14:04 435.822/435.867
Oscar 19 29 Apr 04:13:25 04:16:24 16° 299° (WNW) 04:19:23 437.125/150
CUBESAT XI-V 29 Apr 04:15:04 04:19:13 33° 69° (ENE) 04:23:24 437.345
YUBILEINY 29 Apr 04:22:29 04:31:00 63° 92° (E) 04:39:33 435.215
ITUPSAT 1 29 Apr 04:31:17 04:34:07 16° 268° (W) 04:37:00 437.325
Gurwin Techsat 1B 29 Apr 04:36:18 04:39:36 17° 299° (WNW) 04:42:54 435.225
KKS-1 29 Apr 04:45:53 04:50:21 75° 75° (ENE) 04:54:49 437.445
MOZHAYETS 4 29 Apr 04:55:29 04:58:26 17° 268° (W) 05:01:25
STARS 29 Apr 05:10:01 05:14:21 58° 73° (ENE) 05:18:41 437.465
SO-50 29 Apr 05:22:39 05:26:18 23° 112° (ESE) 05:29:55 436.795
RS-15 29 Apr 05:39:49 05:48:28 24° 99° (E) 05:57:16 29.354- 29.394
AO-7 29 Apr 05:43:07 05:51:08 55° 295° (WNW) 05:59:10 .
ITAMSAT 1 29 Apr 05:44:17 05:48:19 23° 296° (WNW) 05:52:20 435.822/435.867
CUBESAT XI-V 29 Apr 05:52:48 05:56:36 25° 266° (W) 06:00:27 437.345
DOVE 4 29 Apr 05:58:55 06:01:52 17° 91° (E) 06:04:44 437.250
STRAND 1 29 Apr 06:00:19 06:01:17 11° 58° (ENE) 06:02:16 437.568
XW-2C 29 Apr 06:07:47 06:08:56 11° 91° (E) 06:10:06 145.795 - 145.815
LilacSat-2 29 Apr 06:09:29 06:11:12 13° 91° (E) 06:12:55 437.200
YUBILEINY 29 Apr 06:21:10 06:28:22 29° 292° (WNW) 06:35:40 435.215
XW-2F 29 Apr 06:29:40 06:32:32 20° 94° (E) 06:35:23 145.980 - 146.000
NUDT-PHONESAT 29 Apr 06:32:47 06:35:20 17° 93° (E) 06:37:53 437.300
Tancredo 1 29 Apr 06:36:05 06:37:45 14° 131° (SE) 06:39:26 437.200
STARS 29 Apr 06:49:06 06:51:02 13° 269° (W) 06:52:59 437.465
M-CUBED/EXP-1 PRIME 29 Apr 06:52:09 06:56:24 36° 65° (ENE) 07:00:38 437.505
SO-50 29 Apr 07:02:10 07:06:31 40° 309° (NW) 07:10:51 436.795
CUTE-I 29 Apr 07:11:10 07:16:23 54° 100° (E) 07:21:35 437.470
ISS 29 Apr 07:17:49 07:20:42 29° 135° (SE) 07:23:35 437.550
XW-2D 29 Apr 07:20:31 07:24:21 85° 284° (WNW) 07:28:11 145.860 - 145.880
XW-2B 29 Apr 07:27:33 07:31:22 72° 284° (WNW) 07:35:11 145.730 - 145.750
KAITUO 1B 29 Apr 07:30:15 07:34:03 84° 283° (WNW) 07:37:50 145.475/437.950
XW-2A 29 Apr 07:32:13 07:33:33 12° 92° (E) 07:34:53 145.665 - 145.685
STRAND 1 29 Apr 07:34:31 07:39:37 81° 75° (ENE) 07:44:44 437.568
DOVE 4 29 Apr 07:35:32 07:39:50 42° 289° (WNW) 07:43:53 437.250
AO-7 29 Apr 07:38:54 07:42:05 13° 317° (NW) 07:45:16 .
XW-2C 29 Apr 07:39:42 07:43:24 49° 286° (WNW) 07:47:06 145.795 - 145.815
HO-68 29 Apr 07:41:03 07:47:07 29° 95° (E) 07:53:09 435.675
LilacSat-2 29 Apr 07:42:01 07:45:42 44° 286° (WNW) 07:49:23 437.200
RS-15 29 Apr 07:47:09 07:59:14 89° 121° (ESE) 08:11:42 29.354- 29.394
CUTE 1.7 + AOD 2 29 Apr 07:49:48 07:53:20 24° 95° (E) 07:56:51 437.475
CUBEBUG 2 29 Apr 07:51:08 07:52:05 11° 90° (E) 07:53:03 437.445
XW-2F 29 Apr 08:03:25 08:06:39 27° 290° (WNW) 08:09:53 145.980 - 146.000
SEEDS 29 Apr 08:04:22 08:07:46 23° 94° (E) 08:11:09 437.485
NUDT-PHONESAT 29 Apr 08:06:01 08:09:18 29° 289° (WNW) 08:12:34 437.300
Tancredo 1 29 Apr 08:10:15 08:13:18 59° 327° (NNW) 08:16:23 437.200
M-CUBED/EXP-1 PRIME 29 Apr 08:26:58 08:30:48 25° 260° (W) 08:34:41 437.505
CUTE-I 29 Apr 08:52:13 08:56:01 20° 297° (WNW) 08:59:47 437.470
ISS 29 Apr 08:54:06 08:57:08 34° 332° (NNW) 09:00:10 437.550
AAUSAT CUBESAT 2 29 Apr 09:02:59 09:07:05 49° 100° (E) 09:11:07 437.432
XW-2A 29 Apr 09:03:22 09:06:27 34° 287° (WNW) 09:09:31 145.665 - 145.685
UWE-3 29 Apr 09:05:31 09:09:35 46° 99° (E) 09:13:44 435.000/436.395/437.385
STRAND 1 29 Apr 09:17:49 09:19:22 11° 271° (W) 09:20:57 437.568
CUBEBUG 2 29 Apr 09:24:57 09:29:04 61° 285° (WNW) 09:33:15 437.445
CUTE 1.7 + AOD 2 29 Apr 09:25:26 09:29:07 28° 290° (WNW) 09:32:48 437.475
TIGRISAT 29 Apr 09:27:09 09:30:29 22° 67° (ENE) 09:33:46 435.000
HO-68 29 Apr 09:28:09 09:35:08 55° 292° (WNW) 09:42:05 435.675
SEEDS 29 Apr 09:39:43 09:43:26 30° 290° (WNW) 09:47:09 437.485
O/OREOS (USA 219) 29 Apr 09:43:30 09:47:43 37° 105° (ESE) 09:51:58 437.305
Tancredo 1 29 Apr 09:47:43 09:49:42 16° 345° (NNW) 09:51:40 437.200
UNISAT 6 29 Apr 09:48:26 09:52:30 39° 71° (ENE) 09:56:30 437.425
FO-29 29 Apr 09:53:07 09:58:50 42° 70° (ENE) 10:04:01 435.910
ZACube-1 29 Apr 09:54:09 09:58:25 86° 279° (W) 10:02:44 437.345
PRISM 29 Apr 09:56:39 10:00:48 83° 77° (ENE) 10:05:00 437.425
AO-73 29 Apr 09:59:13 10:03:28 83° 284° (WNW) 10:07:49 145.935
RS-15 29 Apr 10:02:41 10:13:32 35° 327° (NNW) 10:24:33 29.354- 29.394
Oscar 11 29 Apr 10:11:11 10:15:33 75° 284° (WNW) 10:19:53 .
PCSat 29 Apr 10:12:58 10:17:28 26° 48° (NE) 10:21:57 145.827
ISS 29 Apr 10:32:31 10:34:22 14° 352° (N) 10:36:12 437.550
AAUSAT CUBESAT 2 29 Apr 10:39:47 10:42:06 15° 296° (WNW) 10:44:24 437.432
UWE-3 29 Apr 10:43:11 10:45:41 16° 295° (WNW) 10:48:13 435.000/436.395/437.385
OBJECT BX 29 Apr 10:51:41 10:55:21 69° 101° (ESE) 10:59:00 145.990 - 145.960
DELFI C3 29 Apr 10:55:08 10:59:09 80° 285° (WNW) 11:03:07 145.870
AIST 2D 29 Apr 10:57:18 11:00:08 24° 70° (ENE) 11:02:58 435.315
POLYITAN 1 29 Apr 11:01:36 11:04:30 18° 66° (ENE) 11:07:23 437.675
TIGRISAT 29 Apr 11:03:03 11:06:59 33° 263° (W) 11:10:52 435.000
AO-85 29 Apr 11:04:33 11:06:06 12° 110° (ESE) 11:07:37 145.980
QB50P2 29 Apr 11:07:53 11:11:12 23° 68° (ENE) 11:14:31 145.880/145.840
HO-68 29 Apr 11:19:51 11:21:17 11° 312° (NW) 11:22:43 435.675
O/OREOS (USA 219) 29 Apr 11:23:34 11:27:13 23° 303° (WNW) 11:30:55 437.305
Tancredo 1 29 Apr 11:25:09 11:26:34 12° 6° (N) 11:27:59 437.200
NANOSAT C BR1 29 Apr 11:26:17 11:29:57 30° 70° (ENE) 11:33:38 145.865
UNISAT 6 29 Apr 11:26:23 11:29:21 18° 267° (W) 11:32:17 437.425
FO-29 29 Apr 11:38:51 11:44:00 27° 264° (W) 11:48:46 435.910
LO-87 29 Apr 11:45:37 11:48:58 38° 98° (E) 11:52:17 145.935 - 145.965
DUCHIFAT 1 29 Apr 11:53:54 11:57:59 55° 74° (ENE) 12:02:05 145.980
EO-79 29 Apr 11:55:29 11:59:40 72° 76° (ENE) 12:03:53 145.935-145.965
PCSat 29 Apr 11:55:53 12:01:09 51° 247° (WSW) 12:06:21 145.827
ESTCUBE 1 29 Apr 12:02:39 12:06:49 34° 97° (E) 12:10:56 437.505/2401.250
ISS 29 Apr 12:09:46 12:11:52 16° 12° (NNE) 12:13:58 437.550
Oscar 19 29 Apr 12:13:15 12:15:42 14° 59° (ENE) 12:18:09 437.125/150
RS-15 29 Apr 12:22:11 12:31:19 23° 2° (N) 12:40:22 29.354- 29.394
AIST 2D 29 Apr 12:30:52 12:33:19 18° 266° (W) 12:35:48 435.315
POLYITAN 1 29 Apr 12:36:04 12:39:59 38° 262° (W) 12:43:56 437.675
Gurwin Techsat 1B 29 Apr 12:39:12 12:41:58 14° 60° (ENE) 12:44:44 435.225
AO-85 29 Apr 12:41:46 12:46:01 64° 304° (NW) 12:50:03 145.980
SPROUT 29 Apr 12:42:03 12:45:26 23° 95° (E) 12:48:47 437.525
QB50P2 29 Apr 12:43:08 12:46:50 30° 263° (W) 12:50:33 145.880/145.840
BUGSAT 1 29 Apr 12:43:11 12:47:16 64° 75° (ENE) 12:51:19 437.445
BEESAT 3 29 Apr 12:59:26 13:03:02 35° 116° (ESE) 13:06:42 437.485
Tancredo 1 29 Apr 13:00:30 13:03:14 28° 26° (NNE) 13:05:58 437.200
NANOSAT C BR1 29 Apr 13:02:24 13:05:40 22° 265° (W) 13:08:58 145.865
AO-7 29 Apr 13:05:04 13:06:35 11° 41° (NE) 13:08:07 .
BEESAT 2 29 Apr 13:06:47 13:09:13 16° 110° (ESE) 13:11:42 435.950
LO-87 29 Apr 13:20:22 13:22:03 13° 294° (WNW) 13:23:45 145.935 - 145.965
50 SAT 29 Apr 13:32:14 13:35:38 50° 100° (E) 13:39:00 437.505
DUCHIFAT 1 29 Apr 13:32:22 13:33:59 12° 269° (W) 13:35:35 145.980
VELOX 1 29 Apr 13:38:29 13:42:55 80° 286° (WNW) 13:47:19 145.980
ESTCUBE 1 29 Apr 13:39:50 13:43:25 23° 293° (WNW) 13:46:59 437.505/2401.250
UKube-1 29 Apr 13:40:59 13:44:40 27° 96° (E) 13:48:19 .
ISS 29 Apr 13:45:45 13:48:56 51° 32° (NNE) 13:52:07 437.550
Oscar 19 29 Apr 13:49:08 13:54:17 82° 256° (WSW) 13:59:31 437.125/150
SO-50 29 Apr 13:53:21 13:56:59 23° 45° (NE) 14:00:34 436.795
Gurwin Techsat 1B 29 Apr 14:15:54 14:21:13 79° 257° (WSW) 14:26:34 435.225
SPROUT 29 Apr 14:17:38 14:21:21 30° 290° (WNW) 14:25:01 437.525
DX 1 29 Apr 14:19:59 14:24:21 76° 284° (WNW) 14:28:40 434.975-435.025
BUGSAT 1 29 Apr 14:22:57 14:23:01 10° 270° (W) 14:23:04 437.445
YUBILEINY 29 Apr 14:33:01 14:40:35 31° 69° (ENE) 14:48:06 435.215
Tancredo 1 29 Apr 14:36:17 14:39:10 35° 223° (SW) 14:42:01 437.200
RS-15 29 Apr 14:37:30 14:48:47 39° 36° (NE) 14:59:37 29.354- 29.394
BEESAT 3 29 Apr 14:37:34 14:40:43 22° 313° (NW) 14:43:54 437.485
BEESAT 2 29 Apr 14:42:48 14:46:36 44° 307° (NW) 14:50:29 435.950
AO-7 29 Apr 14:49:31 14:57:17 47° 63° (ENE) 15:05:05 .
ITUPSAT 1 29 Apr 14:53:28 14:55:52 14° 91° (E) 14:58:16 437.325
MOZHAYETS 4 29 Apr 15:14:19 15:15:21 11° 89° (E) 15:16:24
UKube-1 29 Apr 15:17:00 15:20:36 26° 292° (WNW) 15:24:12 .
ITAMSAT 1 29 Apr 15:21:56 15:27:04 68° 73° (ENE) 15:32:14 435.822/435.867
ISS 29 Apr 15:22:53 15:25:10 18° 228° (SW) 15:27:27 437.550
SO-50 29 Apr 15:33:19 15:37:38 45° 243° (WSW) 15:41:55 436.795
BEESAT 29 Apr 15:46:32 15:51:11 49° 100° (E) 15:55:47 436.000
YUBILEINY 29 Apr 16:29:18 16:37:50 59° 269° (W) 16:46:24 435.215
ITUPSAT 1 29 Apr 16:29:22 16:34:05 62° 287° (WNW) 16:38:49 437.325
KKS-1 29 Apr 16:38:26 16:40:46 14° 92° (E) 16:43:04 437.445
AO-7 29 Apr 16:42:29 16:50:07 40° 261° (W) 16:57:47 .
MOZHAYETS 4 29 Apr 16:48:23 16:53:00 74° 284° (WNW) 16:57:36
RS-15 29 Apr 16:50:20 17:02:33 78° 243° (WSW) 17:14:09 29.354- 29.394
CUTE-I 29 Apr 16:56:53 16:58:57 12° 58° (ENE) 17:01:01 437.470
STARS 29 Apr 17:02:52 17:03:00 10° 90° (E) 17:03:08 437.465
DOVE 4 29 Apr 17:03:13 17:07:12 22° 66° (ENE) 17:11:07 437.250
ITAMSAT 1 29 Apr 17:04:16 17:07:00 14° 269° (W) 17:09:45 435.822/435.867
XW-2F 29 Apr 17:13:08 17:13:27 10° 64° (ENE) 17:13:45 145.980 - 146.000
BEESAT 29 Apr 17:25:18 17:28:34 19° 296° (WNW) 17:31:49 436.000
CUBESAT XI-V 29 Apr 17:48:09 17:52:54 82° 101° (ESE) 17:57:36 437.345
XW-2D 29 Apr 18:01:30 18:05:01 42° 73° (ENE) 18:08:35 145.860 - 145.880
NO-84 29 Apr 18:04:15 18:07:23 23° 129° (SE) 18:10:18 435.350 FM
XW-2B 29 Apr 18:08:26 18:12:02 49° 75° (ENE) 18:15:41 145.730 - 145.750
KAITUO 1B 29 Apr 18:10:02 18:13:29 40° 73° (ENE) 18:16:59 145.475/437.950
HO-68 29 Apr 18:10:42 18:15:58 23° 57° (ENE) 18:21:13 435.675
KKS-1 29 Apr 18:13:18 18:17:38 53° 287° (WNW) 18:21:55 437.445
XW-2C 29 Apr 18:20:24 18:24:07 73° 75° (ENE) 18:27:52 145.795 - 145.815
LilacSat-2 29 Apr 18:23:14 18:26:59 84° 77° (ENE) 18:30:47 437.200
CUTE-I 29 Apr 18:32:49 18:38:11 88° 72° (ENE) 18:43:33 437.470
STARS 29 Apr 18:35:27 18:39:48 71° 286° (WNW) 18:44:08 437.465
DOVE 4 29 Apr 18:39:26 18:44:32 48° 261° (W) 18:49:33 437.250
CUTE 1.7 + AOD 2 29 Apr 18:42:54 18:45:45 18° 66° (ENE) 18:48:37 437.475
XW-2F 29 Apr 18:43:24 18:47:03 57° 259° (W) 18:50:46 145.980 - 146.000
NUDT-PHONESAT 29 Apr 18:44:29 18:48:07 70° 260° (W) 18:51:47 437.300
SEEDS 29 Apr 18:56:36 18:59:13 16° 65° (ENE) 19:01:51 437.485
RS-15 29 Apr 19:05:42 19:12:48 18° 264° (W) 19:19:46 29.354- 29.394
CUBESAT XI-V 29 Apr 19:28:03 19:29:34 11° 299° (WNW) 19:31:05 437.345
XW-2A 29 Apr 19:33:59 19:37:19 67° 75° (ENE) 19:40:38 145.665 - 145.685
AO-85 29 Apr 19:34:06 19:35:46 12° 41° (NE) 19:37:26 145.980
XW-2D 29 Apr 19:37:49 19:39:26 12° 269° (W) 19:41:03 145.860 - 145.880
NO-84 29 Apr 19:41:15 19:44:48 40° 323° (NW) 19:48:04 435.350 FM
STRAND 1 29 Apr 19:45:31 19:49:52 27° 95° (E) 19:54:10 437.568
XW-2B 29 Apr 19:45:46 19:46:32 10° 270° (W) 19:47:18 145.730 - 145.750
KAITUO 1B 29 Apr 19:46:05 19:47:42 12° 269° (W) 19:49:20 145.475/437.950
AAUSAT CUBESAT 2 29 Apr 19:52:53 19:56:34 31° 70° (ENE) 20:00:16 437.432
O/OREOS (USA 219) 29 Apr 19:53:15 19:57:50 71° 67° (ENE) 20:02:21 437.305
HO-68 29 Apr 19:55:49 20:02:57 75° 255° (WSW) 20:10:10 435.675
UWE-3 29 Apr 20:02:25 20:06:17 36° 72° (ENE) 20:10:07 435.000/436.395/437.385
M-CUBED/EXP-1 PRIME 29 Apr 20:06:06 20:09:14 21° 98° (E) 20:12:10 437.505
CUTE 1.7 + AOD 2 29 Apr 20:17:18 20:21:15 39° 262° (W) 20:25:16 437.475
CUTE-I 29 Apr 20:17:28 20:18:53 11° 272° (W) 20:20:18 437.470
CUBEBUG 2 29 Apr 20:22:30 20:26:50 78° 259° (W) 20:31:04 437.445
SEEDS 29 Apr 20:30:33 20:34:32 43° 262° (W) 20:38:35 437.485
ZACube-1 29 Apr 20:49:35 20:53:44 71° 75° (ENE) 20:57:52 437.345
AO-73 29 Apr 20:54:20 20:58:29 72° 76° (ENE) 21:02:36 145.935
